Sidney, NE

8:56 AM MDT on July 28, 2017 (GMT -0600)
Sidney Municipal

Weather History for KSNY - October, 2012

Change the Weather History Date:

Sunday, October 21, 2012

  Actual Average Record
Temperature  
Mean Temperature 50 °F 48 °F  
Max Temperature 65 °F 63 °F 84 °F (2003)
Min Temperature 35 °F 34 °F 17 °F (1987)
Degree Days  
Heating Degree Days 15 17  
Month to date heating degree days 355 278  
Since 1 July heating degree days 471 418  
Cooling Degree Days 0 0  
Month to date cooling degree days 0 1  
Year to date cooling degree days 1165 827  
Growing Degree Days 4 (Base 50)    
Moisture  
Dew Point 34 °F    
Average Humidity 57    
Maximum Humidity 76    
Minimum Humidity 37    
Precipitation  
Precipitation 0.00 in 0.03 in 1.74 in (1953)
Month to date precipitation 0.47 0.79  
Year to date precipitation 6.84 17.20  
Sea Level Pressure  
Sea Level Pressure 29.77 in    
Wind  
Wind Speed 12 mph (NNE)    
Max Wind Speed 22 mph    
Max Gust Speed 26 mph    
Visibility 10 miles    
Events      
T = Trace of Precipitation, MM = Missing Value Source: NWS Daily Summary

Daily Weather History Graph

Daily Weather History Graph

Search for Another Location

Airport or City:

Trip Planner

Search our weather history database for the weather conditions in past years. The results will help you decide how hot, cold, wet, or windy it might be!

Date:

Astronomy

Oct. 21, 2012 Rise Set
Actual Time 7:10 AM MDT 6:01 PM MDT
Civil Twilight 6:42 AM MDT 6:29 PM MDT
Nautical Twilight 6:10 AM MDT 7:01 PM MDT
Astronomical Twilight 5:38 AM MDT 7:33 PM MDT
Moon 1:34 PM MDT (10/21) 11:57 PM MDT (10/21)
Length of Visible Light 11h 46m
Length of Day
10h 50m
Waxing Crescent, 46% of the Moon is Illuminated
Oct 21
Waxing Crescent
Oct 21
First Quarter
Oct 29
Full
Nov 6
Last Quarter
Nov 13
New

Hourly Weather History & Observations

Time (MDT) Temp. Windchill Dew Point Humidity Pressure Visibility Wind Dir Wind Speed Gust Speed Precip Events Conditions
12:53 AM 44.1 °F 40.1 °F 24.1 °F 45% 29.58 in 9.0 mi WNW 6.9 mph - N/A   Clear
1:53 AM 46.9 °F - 24.1 °F 41% 29.58 in 7.0 mi WNW 12.7 mph - N/A   Clear
2:53 AM 43.0 °F 36.4 °F 24.1 °F 47% 29.60 in 8.0 mi WNW 12.7 mph - N/A   Clear
3:53 AM 45.0 °F 38.9 °F 24.1 °F 44% 29.62 in 10.0 mi NW 12.7 mph - N/A   Clear
4:53 AM 46.0 °F 40.6 °F 25.0 °F 44% 29.65 in 8.0 mi NW 11.5 mph - N/A   Clear
5:53 AM 48.0 °F - 26.1 °F 42% 29.69 in 10.0 mi NNW 15.0 mph - N/A   Clear
6:53 AM 46.0 °F 40.6 °F 32.0 °F 58% 29.73 in 10.0 mi North 11.5 mph - N/A   Clear
7:53 AM 46.9 °F - 35.1 °F 63% 29.77 in 10.0 mi North 17.3 mph - N/A   Clear
8:53 AM 50.0 °F - 39.0 °F 66% 29.81 in 10.0 mi NNE 19.6 mph - N/A   Clear
9:53 AM 54.0 °F - 39.9 °F 59% 29.82 in 10.0 mi NNE 18.4 mph - N/A   Clear
10:53 AM 55.9 °F - 39.9 °F 55% 29.83 in 10.0 mi North 16.1 mph - N/A   Clear
11:53 AM 57.9 °F - 39.0 °F 49% 29.83 in 10.0 mi North 17.3 mph 25.3 mph N/A   Clear
12:53 PM 61.0 °F - 39.0 °F 44% 29.81 in 10.0 mi NE 15.0 mph - N/A   Clear
1:53 PM 63.0 °F - 39.0 °F 41% 29.78 in 10.0 mi NNE 13.8 mph - N/A   Clear
2:53 PM 64.0 °F - 37.9 °F 38% 29.77 in 10.0 mi NE 12.7 mph - N/A   Clear
3:53 PM 64.0 °F - 37.9 °F 38% 29.77 in 10.0 mi ENE 13.8 mph - N/A   Clear
4:53 PM 62.1 °F - 37.9 °F 41% 29.78 in 10.0 mi ENE 12.7 mph - N/A   Clear
5:53 PM 55.9 °F - 37.0 °F 49% 29.81 in 10.0 mi ENE 9.2 mph - N/A   Clear
6:53 PM 50.0 °F - 36.0 °F 59% 29.86 in 10.0 mi ENE 8.1 mph - N/A   Clear
7:53 PM 48.0 °F - 37.0 °F 66% 29.88 in 10.0 mi ENE 8.1 mph - N/A   Clear
8:53 PM 46.0 °F 43.1 °F 36.0 °F 68% 29.89 in 10.0 mi NE 5.8 mph - N/A   Clear
9:53 PM 45.0 °F 40.6 °F 36.0 °F 71% 29.90 in 10.0 mi NE 8.1 mph - N/A   Clear
10:53 PM 44.1 °F 39.0 °F 36.0 °F 73% 29.90 in 10.0 mi NNE 9.2 mph - N/A   Clear
11:53 PM 42.1 °F 37.7 °F 36.0 °F 79% 29.90 in 10.0 mi NE 6.9 mph - N/A   Clear